Hourly Data Report for October 09, 2014

All times are specified in Local Standard Time (LST). Add 1 hour to adjust for Daylight Saving Time where and when it is observed.

PANGNIRTUNG
NUNAVUT

66°08'36.300" N
65°42'40.500" W
22.60 m
2403049
71826
WXP

Download Data

Hourly Data (October 2014)
Hourly Data Report for October 9, 2014
Temp Definition
°C
Dew Point Temp Definition
°C
Rel Hum Definition
%
Wind Dir Definition
10's deg

Wind Spd Definition
km/h
Visibility Definition
km
Stn Press Definition
kPa
Hmdx Definition


Wind Chill Definition


Weather Definition


TIME
00:00 -1.2 -4.4 79 33 5   101.24   -3 LegendNANA
01:00 -1.6 -4.8 79 26 4   101.23   -3 LegendNANA
02:00 -2.9 -5.3 84 12 2   101.19   -4 LegendNANA
03:00 -2.9 -5.8 81 15 3   101.16   -4 LegendNANA
04:00 -2.8 -6.8 74 20 2   101.13   -4 LegendNANA
05:00 -2.2 -6.5 73 11 5   101.10   -4 LegendNANA
06:00 -1.9 -6.5 71 11 7   101.05   -5 LegendNANA
07:00 -1.7 -6.4 70 10 9   101.03   -5 LegendNANA
08:00 -1.2 -6.2 68 10 7   101.00   -4 LegendNANA
09:00 -0.6 -6.3 65 8 5   100.95   -2 LegendNANA
10:00 -0.2 -6.4 63 8 4   100.91   -1 LegendNANA
11:00 -0.2 -6.3 63 8 10   100.86   -4 LegendNANA
12:00 -0.2 -6.4 63 10 7   100.83   -3 LegendNANA
13:00 -0.1 -6.2 64 11 11   100.78   -4 LegendNANA
14:00 0.1 -6.3 62 7 12   100.71     LegendNANA
15:00 0.1 -6.3 62 8 8   100.69     LegendNANA
16:00 0.0 -6.2 63 10 9   100.62   -3 LegendNANA
17:00 0.1 -6.5 61 12 9   100.57     LegendNANA
18:00 -0.1 -6.3 63 9 13   100.49   -4 LegendNANA
19:00 0.1 -6.8 60 10 6   100.41     LegendNANA
20:00 -0.1 -5.9 65 5 1   100.28   0 LegendNANA
21:00 0.1 -5.4 67 13 1   100.14     LegendNANA
22:00 0.3 -4.9 68 26 6   100.02     LegendNANA
23:00 1.4 -4.7 64 5 14   99.83     LegendNANA

Notes on Data Quality.

Legend

  • E = Estimated
  • M = Missing
  • NA = Not Available
  • ‡ = Partner data that is not subject to review by the National Climate Archives
Date modified: